| time (UTC) | temp F | wind direction | speed MPH | gust MPH | rain 1hr in | rain 24hr in | rain mn in | humidity % | barometer mb |
| 20260507210347 | 57 | 355 | 10.0 | 17.0 | 0.00 | 0.00 | 0.00 | 45 | 1011.9 |
| 20260507205346 | 56 | 8 | 9.0 | 19.0 | 0.00 | 0.00 | 0.00 | 42 | 1011.8 |
| 20260507204345 | 57 | 359 | 10.0 | 19.0 | 0.00 | 0.00 | 0.00 | 44 | 1011.5 |
| 20260507203344 | 58 | 353 | 8.0 | 21.0 | 0.00 | 0.00 | 0.00 | 51 | 1011.6 |
| 20260507202343 | 57 | 336 | 10.0 | 21.0 | 0.00 | 0.00 | 0.00 | 45 | 1011.5 |
| 20260507201340 | 58 | 326 | 12.0 | 18.0 | 0.00 | 0.00 | 0.00 | 44 | 1011.5 |
| 20260507200340 | 55 | 359 | 10.0 | 18.0 | 0.00 | 0.00 | 0.00 | 46 | 1011.4 |
| 20260507195339 | 54 | 351 | 12.0 | 19.0 | 0.00 | 0.00 | 0.00 | 48 | 1011.4 |
| 20260507194338 | 55 | 333 | 13.0 | 19.0 | 0.00 | 0.00 | 0.00 | 50 | 1011.8 |
| 20260507193306 | 57 | 323 | 13.0 | 22.0 | 0.00 | 0.00 | 0.00 | 46 | 1011.9 |
| 20260507192306 | 57 | 322 | 12.0 | 22.0 | 0.00 | 0.00 | 0.00 | 49 | 1011.9 |
| 20260507191304 | 56 | 305 | 11.0 | 20.0 | 0.00 | 0.00 | 0.00 | 47 | 1011.9 |
| 20260507190232 | 57 | 318 | 9.0 | 20.0 | 0.00 | 0.00 | 0.00 | 49 | 1011.9 |
| 20260507185231 | 57 | 314 | 10.0 | 19.0 | 0.00 | 0.00 | 0.00 | 47 | 1012.2 |
| 20260507184231 | 57 | 315 | 10.0 | 18.0 | 0.00 | 0.00 | 0.00 | 49 | 1012.2 |
| 20260507183230 | 55 | 335 | 12.0 | 18.0 | 0.00 | 0.00 | 0.00 | 52 | 1012.2 |
| 20260507182228 | 55 | 314 | 5.0 | 19.0 | 0.00 | 0.00 | 0.00 | 55 | 1012.2 |
| 20260507181228 | 55 | 325 | 10.0 | 19.0 | 0.00 | 0.00 | 0.00 | 53 | 1012.2 |
| 20260507180226 | 55 | 322 | 8.0 | 16.0 | 0.00 | 0.00 | 0.00 | 49 | 1012.2 |
| 20260507175225 | 55 | 325 | 9.0 | 18.0 | 0.00 | 0.00 | 0.00 | 49 | 1012.1 |
| 20260507174224 | 55 | 338 | 11.0 | 18.0 | 0.00 | 0.00 | 0.00 | 52 | 1012.1 |
| 20260507173223 | 55 | 308 | 8.0 | 17.0 | 0.00 | 0.00 | 0.00 | 49 | 1012.2 |
| 20260507172223 | 55 | 331 | 10.0 | 15.0 | 0.00 | 0.00 | 0.00 | 51 | 1012.2 |
| 20260507171221 | 55 | 329 | 6.0 | 18.0 | 0.00 | 0.00 | 0.00 | 50 | 1012.5 |
| 20260507170221 | 56 | 337 | 11.0 | 18.0 | 0.00 | 0.00 | 0.00 | 52 | 1012.6 |
| 20260507165220 | 55 | 313 | 14.0 | 17.0 | 0.00 | 0.00 | 0.00 | 48 | 1012.5 |
| 20260507164219 | 55 | 302 | 10.0 | 15.0 | 0.00 | 0.00 | 0.00 | 50 | 1012.6 |
| 20260507163218 | 56 | 351 | 8.0 | 13.0 | 0.00 | 0.00 | 0.00 | 51 | 1012.3 |
| 20260507162146 | 56 | 345 | 8.0 | 13.0 | 0.00 | 0.00 | 0.00 | 50 | 1012.3 |
| 20260507161146 | 56 | 338 | 8.0 | 13.0 | 0.00 | 0.00 | 0.00 | 52 | 1012.3 |
| 20260507160145 | 55 | 5 | 7.0 | 14.0 | 0.00 | 0.00 | 0.00 | 53 | 1012.3 |
| 20260507155144 | 53 | 329 | 9.0 | 18.0 | 0.00 | 0.00 | 0.00 | 52 | 1012.5 |
| 20260507154143 | 54 | 336 | 10.0 | 18.0 | 0.00 | 0.00 | 0.00 | 54 | 1012.6 |
| 20260507153143 | 55 | 330 | 7.0 | 10.0 | 0.00 | 0.00 | 0.00 | 53 | 1012.6 |
| 20260507152142 | 55 | 323 | 6.0 | 10.0 | 0.00 | 0.00 | 0.00 | 55 | 1012.6 |
| 20260507151141 | 54 | 297 | 5.0 | 13.0 | 0.00 | 0.00 | 0.00 | 58 | 1012.6 |
| 20260507150141 | 54 | 343 | 7.0 | 13.0 | 0.00 | 0.00 | 0.00 | 61 | 1012.6 |
| 20260507145140 | 52 | 313 | 4.0 | 9.0 | 0.00 | 0.00 | 0.00 | 62 | 1012.5 |
| 20260507144139 | 52 | 283 | 6.0 | 10.0 | 0.00 | 0.00 | 0.00 | 66 | 1012.5 |
| 20260507143139 | 52 | 295 | 4.0 | 11.0 | 0.00 | 0.00 | 0.00 | 67 | 1012.5 |
| 20260507142004 | 52 | 321 | 3.0 | 10.0 | 0.00 | 0.00 | 0.00 | 65 | 1012.5 |
| 20260507141004 | 51 | 285 | 4.0 | 10.0 | 0.00 | 0.00 | 0.00 | 67 | 1012.5 |
| 20260507140003 | 51 | 340 | 5.0 | 10.0 | 0.00 | 0.00 | 0.00 | 68 | 1012.5 |
| 20260507135002 | 50 | 326 | 5.0 | 9.0 | 0.00 | 0.00 | 0.00 | 68 | 1012.8 |
| 20260507134001 | 49 | 322 | 4.0 | 9.0 | 0.00 | 0.00 | 0.00 | 69 | 1012.8 |
| 20260507133000 | 49 | 296 | 4.0 | 8.0 | 0.00 | 0.00 | 0.00 | 72 | 1012.8 |
| 20260507131959 | 48 | 314 | 4.0 | 9.0 | 0.00 | 0.00 | 0.00 | 72 | 1012.8 |
| 20260507130959 | 47 | 309 | 4.0 | 9.0 | 0.00 | 0.00 | 0.00 | 74 | 1012.7 |
| 20260507125958 | 47 | 307 | 6.0 | 9.0 | 0.00 | 0.00 | 0.00 | 74 | 1012.7 |
| 20260507124957 | 46 | 313 | 5.0 | 9.0 | 0.00 | 0.00 | 0.00 | 77 | 1012.7 |
| 20260507123957 | 46 | 297 | 5.0 | 9.0 | 0.00 | 0.00 | 0.00 | 77 | 1012.7 |
| 20260507122925 | 45 | 294 | 6.0 | 8.0 | 0.00 | 0.00 | 0.00 | 78 | 1012.8 |
| 20260507121924 | 45 | 305 | 4.0 | 8.0 | 0.00 | 0.00 | 0.00 | 80 | 1012.7 |
| 20260507120923 | 44 | 305 | 5.0 | 8.0 | 0.00 | 0.00 | 0.00 | 80 | 1012.7 |
| 20260507115922 | 44 | 302 | 3.0 | 8.0 | 0.00 | 0.00 | 0.00 | 81 | 1012.7 |
| 20260507114920 | 43 | 315 | 3.0 | 8.0 | 0.00 | 0.00 | 0.00 | 83 | 1012.7 |
| 20260507113849 | 42 | 303 | 3.0 | 6.0 | 0.00 | 0.00 | 0.00 | 84 | 1012.7 |
| 20260507112848 | 42 | 305 | 4.0 | 6.0 | 0.00 | 0.00 | 0.00 | 83 | 1012.3 |
| 20260507111846 | 41 | 281 | 3.0 | 5.0 | 0.00 | 0.00 | 0.00 | 84 | 1012.3 |
| 20260507110743 | 41 | 285 | 2.0 | 5.0 | 0.00 | 0.00 | 0.00 | 85 | 1012.3 |
| 20260507105711 | 40 | 273 | 3.0 | 5.0 | 0.00 | 0.00 | 0.00 | 84 | 1012.0 |
| 20260507104709 | 40 | 272 | 3.0 | 4.0 | 0.00 | 0.00 | 0.00 | 84 | 1012.0 |
| 20260507103708 | 40 | 279 | 1.0 | 4.0 | 0.00 | 0.00 | 0.00 | 83 | 1012.0 |
| 20260507102707 | 40 | 268 | 3.0 | 3.0 | 0.00 | 0.00 | 0.00 | 82 | 1012.0 |
| 20260507101706 | 40 | 288 | 2.0 | 4.0 | 0.00 | 0.00 | 0.00 | 82 | 1012.0 |
| 20260507100603 | 41 | 279 | 2.0 | 4.0 | 0.00 | 0.00 | 0.00 | 82 | 1011.7 |
| 20260507095603 | 41 | 262 | 1.0 | 4.0 | 0.00 | 0.00 | 0.00 | 80 | 1011.7 |
| 20260507094602 | 41 | 295 | 3.0 | 3.0 | 0.00 | 0.00 | 0.00 | 80 | 1012.0 |
| 20260507093601 | 42 | 266 | 1.0 | 3.0 | 0.00 | 0.00 | 0.00 | 80 | 1011.7 |
| 20260507092601 | 42 | 264 | 1.0 | 3.0 | 0.00 | 0.00 | 0.00 | 80 | 1011.7 |
| 20260507091600 | 42 | 264 | 2.0 | 3.0 | 0.00 | 0.00 | 0.00 | 80 | 1011.7 |
| 20260507090559 | 42 | 267 | 1.0 | 4.0 | 0.00 | 0.00 | 0.00 | 80 | 1012.1 |
| 20260507085527 | 42 | 265 | 1.0 | 4.0 | 0.00 | 0.00 | 0.00 | 81 | 1012.1 |
| 20260507084526 | 41 | 288 | 1.0 | 3.0 | 0.00 | 0.00 | 0.00 | 82 | 1012.1 |
| 20260507083525 | 41 | 298 | 1.0 | 4.0 | 0.00 | 0.00 | 0.00 | 82 | 1012.1 |
| 20260507082525 | 41 | 296 | 2.0 | 3.0 | 0.00 | 0.01 | 0.00 | 81 | 1012.1 |
| 20260507081524 | 41 | 299 | 1.0 | 3.0 | 0.00 | 0.01 | 0.00 | 83 | 1012.1 |
| 20260507080523 | 41 | 273 | 2.0 | 3.0 | 0.00 | 0.01 | 0.00 | 82 | 1012.1 |
| 20260507075522 | 41 | 300 | 1.0 | 2.0 | 0.00 | 0.02 | 0.00 | 81 | 1012.1 |
| 20260507074522 | 41 | 301 | 1.0 | 3.0 | 0.00 | 0.04 | 0.00 | 81 | 1012.1 |
| 20260507073450 | 42 | 286 | 1.0 | 3.0 | 0.00 | 0.05 | 0.00 | 81 | 1012.1 |
| 20260507072449 | 42 | 286 | 1.0 | 2.0 | 0.00 | 0.05 | 0.00 | 81 | 1012.5 |
| 20260507071448 | 42 | 279 | 1.0 | 3.0 | 0.00 | 0.06 | 0.00 | 81 | 1012.2 |
| 20260507070446 | 42 | 279 | 1.0 | 3.0 | 0.00 | 0.06 | 0.00 | 79 | 1012.1 |
| 20260507065445 | 42 | 283 | 2.0 | 3.0 | 0.00 | 0.08 | 0.00 | 79 | 1012.5 |
| 20260507064445 | 43 | 279 | 1.0 | 3.0 | 0.00 | 0.09 | 0.00 | 79 | 1012.5 |
| 20260507063444 | 43 | 288 | 1.0 | 3.0 | 0.00 | 0.10 | 0.00 | 78 | 1012.5 |
| 20260507062443 | 43 | 293 | 1.0 | 3.0 | 0.00 | 0.11 | 0.00 | 79 | 1012.5 |
| 20260507061442 | 42 | 275 | 1.0 | 2.0 | 0.00 | 0.11 | 0.00 | 81 | 1012.5 |
| 20260507060441 | 42 | 274 | 1.0 | 2.0 | 0.00 | 0.12 | 0.00 | 81 | 1012.9 |
| 20260507055440 | 42 | 254 | 1.0 | 2.0 | 0.00 | 0.12 | 0.00 | 81 | 1012.8 |
| 20260507054439 | 42 | 230 | 1.0 | 2.0 | 0.00 | 0.13 | 0.00 | 82 | 1012.8 |
| 20260507053408 | 42 | 217 | 1.0 | 2.0 | 0.00 | 0.14 | 0.00 | 85 | 1012.8 |
| 20260507052306 | 42 | 217 | 0.0 | 2.0 | 0.00 | 0.15 | 0.00 | 83 | 1012.8 |
| 20260507051303 | 43 | 217 | 0.0 | 2.0 | 0.00 | 0.16 | 0.00 | 81 | 1012.8 |
| 20260507050232 | 43 | 217 | 2.0 | 2.0 | 0.00 | 0.16 | 0.00 | 82 | 1012.8 |
| 20260507045231 | 44 | 217 | 1.0 | 1.0 | 0.00 | 0.16 | 0.00 | 82 | 1013.2 |
| 20260507044230 | 44 | 217 | 0.0 | 2.0 | 0.00 | 0.17 | 0.00 | 80 | 1012.9 |
| 20260507043229 | 45 | 217 | 0.0 | 2.0 | 0.00 | 0.17 | 0.00 | 79 | 1012.9 |
| 20260507042228 | 45 | 217 | 1.0 | 2.0 | 0.00 | 0.18 | 0.00 | 77 | 1012.9 |
| 20260507041227 | 45 | 232 | 1.0 | 2.0 | 0.00 | 0.18 | 0.00 | 82 | 1012.9 |
| 20260507040227 | 45 | 223 | 1.0 | 3.0 | 0.00 | 0.18 | 0.18 | 82 | 1013.3 |
| 20260507035226 | 45 | 223 | 1.0 | 4.0 | 0.00 | 0.19 | 0.18 | 82 | 1013.3 |
| 20260507034225 | 45 | 186 | 1.0 | 2.0 | 0.00 | 0.19 | 0.18 | 82 | 1013.3 |
| 20260507033224 | 45 | 182 | 1.0 | 2.0 | 0.00 | 0.20 | 0.18 | 83 | 1013.6 |
| 20260507032223 | 45 | 179 | 1.0 | 2.0 | 0.00 | 0.21 | 0.18 | 82 | 1013.6 |
| 20260507031223 | 45 | 29 | 1.0 | 1.0 | 0.00 | 0.22 | 0.18 | 86 | 1013.5 |
| 20260507030150 | 45 | 23 | 0.0 | 2.0 | 0.00 | 0.24 | 0.18 | 85 | 1013.5 |
| 20260507025119 | 45 | 23 | 1.0 | 2.0 | 0.00 | 0.26 | 0.18 | 84 | 1013.9 |
| 20260507024117 | 45 | 22 | 0.0 | 2.0 | 0.00 | 0.28 | 0.18 | 84 | 1013.5 |
| 20260507023045 | 45 | 23 | 0.0 | 2.0 | 0.00 | 0.30 | 0.18 | 85 | 1013.2 |
| 20260507022043 | 45 | 23 | 0.0 | 2.0 | 0.00 | 0.32 | 0.18 | 82 | 1013.1 |
| 20260507021043 | 45 | 23 | 0.0 | 2.0 | 0.00 | 0.35 | 0.18 | 84 | 1013.1 |
| 20260507020042 | 46 | 22 | 0.0 | 0.0 | 0.00 | 0.38 | 0.18 | 82 | 1013.1 |
| 20260507015040 | 46 | 23 | 0.0 | 0.0 | 0.00 | 0.40 | 0.18 | 79 | 1013.1 |
| 20260507014040 | 46 | 22 | 0.0 | 0.0 | 0.00 | 0.42 | 0.18 | 78 | 1013.1 |
| 20260507013039 | 46 | 22 | 0.0 | 0.0 | 0.00 | 0.46 | 0.18 | 79 | 1013.1 |
| 20260507012038 | 46 | 23 | 0.0 | 0.0 | 0.00 | 0.47 | 0.18 | 78 | 1012.7 |
| 20260507011037 | 46 | 23 | 0.0 | 0.0 | 0.00 | 0.48 | 0.18 | 76 | 1012.8 |
| 20260507010037 | 47 | 23 | 0.0 | 0.0 | 0.00 | 0.50 | 0.18 | 75 | 1012.8 |
| 20260507005034 | 47 | 23 | 0.0 | 0.0 | 0.00 | 0.50 | 0.18 | 69 | 1012.7 |
| 20260507004032 | 48 | 23 | 0.0 | 0.0 | 0.00 | 0.51 | 0.18 | 69 | 1012.7 |
| 20260507003031 | 49 | 23 | 0.0 | 1.0 | 0.00 | 0.51 | 0.18 | 63 | 1012.4 |
| 20260507001959 | 49 | 23 | 0.0 | 2.0 | 0.00 | 0.52 | 0.18 | 66 | 1012.4 |
| 20260507000958 | 49 | 23 | 1.0 | 2.0 | 0.00 | 0.52 | 0.18 | 63 | 1012.8 |
| 20260506235958 | 50 | 23 | 2.0 | 4.0 | 0.00 | 0.54 | 0.18 | 61 | 1012.8 |
| 20260506234957 | 50 | 10 | 3.0 | 5.0 | 0.00 | 0.55 | 0.18 | 62 | 1012.8 |
| 20260506233957 | 50 | 35 | 2.0 | 5.0 | 0.00 | 0.59 | 0.18 | 60 | 1012.8 |
| 20260506232956 | 50 | 19 | 4.0 | 6.0 | 0.00 | 0.61 | 0.18 | 59 | 1012.8 |
| 20260506231853 | 50 | 33 | 3.0 | 10.0 | 0.00 | 0.61 | 0.18 | 61 | 1012.4 |
| 20260506230852 | 51 | 38 | 5.0 | 10.0 | 0.00 | 0.61 | 0.18 | 57 | 1012.4 |
| 20260506225851 | 51 | 26 | 3.0 | 9.0 | 0.00 | 0.61 | 0.18 | 58 | 1012.4 |
| 20260506224850 | 51 | 21 | 6.0 | 9.0 | 0.00 | 0.62 | 0.18 | 59 | 1012.5 |
| 20260506223850 | 51 | 41 | 5.0 | 10.0 | 0.00 | 0.63 | 0.18 | 57 | 1012.5 |
| 20260506222848 | 51 | 22 | 5.0 | 13.0 | 0.00 | 0.64 | 0.18 | 57 | 1012.8 |
| 20260506221847 | 51 | 23 | 7.0 | 12.0 | 0.00 | 0.66 | 0.18 | 57 | 1012.8 |
| 20260506220846 | 51 | 10 | 9.0 | 12.0 | 0.00 | 0.71 | 0.18 | 54 | 1012.5 |
| 20260506215814 | 51 | 39 | 6.0 | 12.0 | 0.00 | 0.72 | 0.18 | 55 | 1012.5 |
| 20260506214813 | 52 | 3 | 9.0 | 14.0 | 0.00 | 0.74 | 0.18 | 56 | 1012.1 |
| 20260506213812 | 52 | 19 | 10.0 | 14.0 | 0.00 | 0.76 | 0.18 | 53 | 1011.8 |
| 20260506212811 | 52 | 22 | 7.0 | 11.0 | 0.00 | 0.78 | 0.18 | 55 | 1011.8 |
| 20260506211810 | 53 | 44 | 7.0 | 11.0 | 0.00 | 0.80 | 0.18 | 57 | 1011.5 |
| 20260506210809 | 53 | 10 | 7.0 | 12.0 | 0.00 | 0.83 | 0.18 | 57 | 1011.5 |